Hourly Data Report for May 04, 2012

All times are specified in Local Standard Time (LST). Add 1 hour to adjust for Daylight Saving Time where and when it is observed.

DEER LAKE A
NEWFOUNDLAND

49°12'33.000" N
57°23'40.000" W
21.90 m
8401502
71809
YDF

Download Data

Hourly Data (May 2012)
Hourly Data Report for May 4, 2012
Temp Definition
°C
Dew Point Temp Definition
°C
Rel Hum Definition
%
Wind Dir Definition
10's deg

Wind Spd Definition
km/h
Visibility Definition
km
Stn Press Definition
kPa
Hmdx Definition


Wind Chill Definition


Weather Definition


TIME
00:30 Legend Double Dagger 1.1 -0.8 87 5 17 10.0 101.81     LegendNANA
01:30 Legend Double Dagger 0.6 -1.2 88 3 14 10.0 101.79     LegendNANA
02:30 Legend Double Dagger 0.4 -1.4 88 5 13 10.0 101.82     Cloudy
03:30 Legend Double Dagger 0.9 -1.2 86 2 12 10.0 101.86     LegendNANA
04:30 Legend Double Dagger 0.8 -1.1 87 3 15 10.0 101.95     LegendNANA
05:30 Legend Double Dagger 1.1 -0.8 87 6 12 10.0 102.01     Cloudy
06:30 Legend Double Dagger 2.0 -0.6 83 4 15 10.0 102.03     LegendNANA
07:30 Legend Double Dagger 3.2 -0.3 78 3 15 10.0 102.06     LegendNANA
08:30 Legend Double Dagger 4.4 0.2 74 4 17 10.0 102.07     Cloudy
09:30 Legend Double Dagger 5.3 0.9 73 4 25 10.0 102.08     LegendNANA
10:30 Legend Double Dagger 6.4 1.3 70 6 26 10.0 102.05     LegendNANA
11:30 Legend Double Dagger 7.5 1.4 65 8 22 10.0 102.01     Mostly Cloudy
12:30 Legend Double Dagger 8.4 2.0 64 4 26 10.0 101.94     LegendNANA
13:30 Legend Double Dagger 9.9 2.3 59 4 32 10.0 101.85     LegendNANA
14:30 Legend Double Dagger 10.5 2.4 57 2 25 10.0 101.78     Mainly Clear
15:30 Legend Double Dagger 11.9 3.2 55 3 20 10.0 101.75     LegendNANA
16:30 Legend Double Dagger 11.3 2.9 56 3 24 10.0 101.75     LegendNANA
17:30 Legend Double Dagger 9.7 2.6 61 4 28 10.0 101.76     Mostly Cloudy
18:30 Legend Double Dagger 8.0 1.9 65 4 27 10.0 101.81     LegendNANA
19:30 Legend Double Dagger 6.3 1.3 70 4 26 10.0 101.84     LegendNANA
20:30 Legend Double Dagger 5.2 1.3 76 5 19 10.0 101.86     Mostly Cloudy
21:30 Legend Double Dagger 4.4 0.7 77 5 19 10.0 101.88     LegendNANA
22:30 Legend Double Dagger 3.8 0.3 78 4 20 10.0 101.85     LegendNANA
23:30 Legend Double Dagger 3.6 0.8 82 4 15 10.0 101.82     Cloudy

Notes on Data Quality.

Legend

  • E = Estimated
  • M = Missing
  • NA = Not Available
  • ‡ = Partner data that is not subject to review by the National Climate Archives
Date modified: